QPF
0.00 0.00 0.00 0.00 0.00 0.00 0.00 0.00 0.00 0.00 0.00 0.00 0.00 0.00 0.00 0.00 0.00 0.00 0.00 0.00 0.00 0.00 0.00 0.03 0.05 0.09 0.07 0.02 0.00 0.00 0.00 0.00 0.00 0.00 0.00 0.00 0.00 0.00 0.00 0.00 0.00 0.00 0.00
0.00 0.00 0.00 0.00 0.00 0.00 0.00 0.00 0.00 0.00 0.00 0.00 0.00 0.00 0.00 0.00 0.00 0.00 0.00 0.00 0.00 0.00 0.00 0.00 0.02 0.00 0.03 0.00 0.00 0.00 0.00 0.00 0.00 0.00 0.00 0.00 0.00 0.00 0.00 0.00 0.00 0.00 0.00
0.00 0.00 0.00 0.00 0.00 0.00 0.00 0.00 0.00 0.00 0.00 0.00 0.00 0.00 0.00 0.00 0.00 0.00 0.00 0.00 0.00 0.00 0.00 0.01 0.01 0.00 0.01 0.01 0.00 0.01 0.02 0.00 0.00 0.00 0.00 0.00 0.00 0.00 0.00 0.00 0.00 0.00 0.00
0.00 0.00 0.00 0.00 0.00 0.00 0.00 0.00 0.00 0.00 0.00 0.00 0.00 0.00 0.00 0.00 0.00 0.00 0.00 0.00 0.00 0.01 0.03 0.05 0.11 0.11 0.05 0.05 0.02 0.02 0.03 0.02 0.00 0.00 0.00 0.00 0.00 0.00 0.00 0.00 0.00 0.00 0.00
0.00 0.00 0.00 0.00 0.00 0.00 0.00 0.00 0.00 0.00 0.00 0.00 0.00 0.00 0.00 0.00 0.00 0.00 0.00 0.00 0.00 0.01 0.04 0.06 0.09 0.13 0.09 0.12 0.10 0.04 0.03 0.02 0.01 0.00 0.00 0.00 0.00 0.00 0.00 0.00 0.00 0.00 0.00
0.00 0.00 0.00 0.00 0.00 0.00 0.00 0.00 0.00 0.00 0.00 0.00 0.00 0.00 0.00 0.00 0.00 0.00 0.00 0.00 0.01 0.03 0.02 0.01 0.04 0.10 0.10 0.14 0.15 0.09 0.05 0.01 0.00 0.00 0.00 0.00 0.00 0.00 0.00 0.00 0.00 0.00 0.00
0.00 0.00 0.00 0.00 0.00 0.00 0.00 0.00 0.00 0.00 0.00 0.00 0.00 0.00 0.00 0.00 0.00 0.00 0.00 0.00 0.00 0.00 0.02 0.03 0.04 0.05 0.08 0.07 0.05 0.03 0.02 0.00 0.01 0.01 0.00 0.00 0.00 0.00 0.00 0.00 0.00 0.00 0.00
0.00 0.00 0.00 0.00 0.00 0.00 0.00 0.00 0.00 0.00 0.00 0.00 0.00 0.00 0.00 0.00 0.00 0.00 0.00 0.00 0.01 0.02 0.03 0.01 0.01 0.01 0.04 0.05 0.03 0.01 0.00 0.00 0.01 0.00 0.00 0.00 0.00 0.00 0.00 0.00 0.00 0.00 0.00
0.00 0.00 0.00 0.00 0.00 0.00 0.00 0.00 0.00 0.00 0.00 0.00 0.00 0.00 0.00 0.00 0.00 0.01 0.02 0.00 0.01 0.05 0.04 0.03 0.02 0.00 0.02 0.01 0.00 0.00 0.00 0.00 0.00 0.00 0.00 0.00 0.00 0.00 0.00 0.00 0.00 0.00 0.00
0.00 0.00 0.00 0.00 0.00 0.00 0.01 0.02 0.01 0.00 0.01 0.01 0.01 0.01 0.04 0.05 0.00 0.03 0.04 0.08 0.08 0.06 0.08 0.05 0.05 0.02 0.00 0.00 0.00 0.00 0.00 0.00 0.00 0.00 0.00 0.00 0.00 0.00 0.00 0.00 0.00 0.00 0.00
0.00 0.00 0.00 0.00 0.00 0.00 0.01 0.02 0.06 0.07 0.08 0.07 0.03 0.03 0.08 0.14 0.16 0.05 0.07 0.12 0.14 0.09 0.11 0.04 0.01 0.01 0.00 0.00 0.00 0.00 0.00 0.00 0.00 0.00 0.00 0.00 0.00 0.00 0.00 0.00 0.00 0.00 0.00
0.00 0.00 0.00 0.00 0.00 0.00 0.00 0.00 0.00 0.01 0.01 0.01 0.04 0.06 0.23 0.30 0.19 0.14 0.12 0.05 0.08 0.06 0.06 0.04 0.01 0.00 0.00 0.00 0.00 0.00 0.00 0.00 0.00 0.00 0.00 0.00 0.00 0.00 0.00 0.00 0.00 0.00 0.00
0.00 0.00 0.00 0.00 0.00 0.00 0.00 0.00 0.00 0.00 0.02 0.04 0.04 0.05 0.11 0.21 0.19 0.08 0.09 0.09 0.09 0.09 0.06 0.03 0.03 0.01 0.00 0.00 0.00 0.00 0.00 0.00 0.00 0.00 0.00 0.00 0.00 0.00 0.00 0.00 0.00 0.00 0.00
0.00 0.00 0.00 0.00 0.00 0.00 0.00 0.00 0.00 0.01 0.01 0.03 0.04 0.04 0.06 0.10 0.19 0.10 0.04 0.03 0.04 0.05 0.04 0.02 0.00 0.00 0.00 0.00 0.00 0.00 0.00 0.00 0.00 0.00 0.00 0.00 0.00 0.00 0.00 0.00 0.00 0.00 0.00
0.00 0.00 0.00 0.00 0.00 0.00 0.00 0.00 0.01 0.02 0.03 0.04 0.04 0.08 0.04 0.07 0.09 0.08 0.05 0.03 0.03 0.02 0.01 0.00 0.00 0.00 0.00 0.00 0.00 0.00 0.00 0.00 0.00 0.00 0.00 0.00 0.00 0.00 0.00 0.00 0.00 0.00 0.00
0.00 0.00 0.00 0.00 0.00 0.00 0.00 0.00 0.00 0.03 0.04 0.06 0.04 0.07 0.07 0.08 0.11 0.07 0.03 0.02 0.02 0.02 0.00 0.00 0.00 0.00 0.00 0.00 0.00 0.00 0.00 0.00 0.00 0.00 0.00 0.00 0.00 0.00 0.00 0.00 0.00 0.00 0.00
0.00 0.00 0.00 0.00 0.00 0.00 0.00 0.00 0.00 0.01 0.02 0.02 0.03 0.05 0.06 0.05 0.07 0.07 0.03 0.03 0.02 0.01 0.00 0.00 0.00 0.00 0.00 0.00 0.00 0.00 0.00 0.00 0.00 0.00 0.00 0.00 0.00 0.00 0.00 0.00 0.00 0.00 0.00
0.00 0.00 0.00 0.00 0.00 0.00 0.00 0.00 0.00 0.00 0.01 0.01 0.02 0.02 0.04 0.04 0.03 0.03 0.03 0.02 0.01 0.00 0.00 0.00 0.00 0.00 0.00 0.00 0.00 0.00 0.00 0.00 0.00 0.00 0.00 0.00 0.00 0.00 0.00 0.00 0.00 0.00 0.00
0.00 0.00 0.00 0.00 0.00 0.00 0.00 0.00 0.00 0.01 0.01 0.01 0.02 0.02 0.02 0.02 0.02 0.02 0.01 0.00 0.00 0.00 0.00 0.00 0.00 0.00 0.00 0.00 0.00 0.00 0.00 0.00 0.00 0.00 0.00 0.00 0.00 0.00 0.00 0.00 0.00 0.00 0.00
0.00 0.00 0.00 0.00 0.00 0.00 0.00 0.00 0.00 0.00 0.00 0.01 0.01 0.01 0.02 0.01 0.00 0.00 0.00 0.00 0.00 0.00 0.00 0.00 0.00 0.00 0.00 0.00 0.00 0.00 0.00 0.00 0.00 0.00 0.00 0.00 0.00 0.00 0.00 0.00 0.00 0.00 0.00
0.00 0.00 0.00 0.00 0.00 0.00 0.00 0.00 0.00 0.00 0.00 0.00 0.00 0.00 0.00 0.00 0.00 0.00 0.00 0.00 0.00 0.00 0.00 0.00 0.00 0.00 0.00 0.00 0.00 0.00 0.00 0.00 0.00 0.00 0.00 0.00 0.00 0.00 0.00 0.00 0.00 0.00 0.00
0.00 0.00 0.00 0.00 0.00 0.00 0.00 0.00 0.00 0.00 0.00 0.00 0.00 0.00 0.00 0.00 0.00 0.00 0.00 0.00 0.00 0.00 0.00 0.00 0.00 0.00 0.00 0.00 0.00 0.00 0.00 0.00 0.00 0.00 0.00 0.00 0.00 0.00 0.00 0.00 0.00 0.00 0.00
0.00 0.00 0.00 0.00 0.00 0.00 0.00 0.00 0.00 0.00 0.00 0.00 0.00 0.00 0.00 0.00 0.00 0.00 0.00 0.00 0.00 0.00 0.00 0.00 0.00 0.00 0.00 0.00 0.00 0.00 0.00 0.00 0.00 0.00 0.00 0.00 0.00 0.00 0.00 0.00 0.00 0.00 0.00
0.00 0.00 0.00 0.00 0.00 0.00 0.00 0.00 0.00 0.00 0.00 0.00 0.00 0.00 0.00 0.00 0.00 0.00 0.00 0.00 0.00 0.00 0.00 0.00 0.00 0.00 0.00 0.00 0.00 0.00 0.00 0.00 0.00 0.00 0.00 0.00 0.00 0.00 0.00 0.00 0.00 0.00 0.00
0.00 0.00 0.00 0.00 0.00 0.00 0.00 0.00 0.00 0.00 0.00 0.00 0.00 0.00 0.00 0.00 0.00 0.00 0.00 0.00 0.00 0.00 0.00 0.00 0.00 0.00 0.00 0.00 0.00 0.00 0.00 0.00 0.00 0.00 0.00 0.00 0.00 0.00 0.00 0.00 0.00 0.00 0.00
0.00 0.00 0.00 0.00 0.00 0.00 0.00 0.00 0.00 0.00 0.00 0.00 0.00 0.00 0.00 0.00 0.00 0.00 0.00 0.00 0.00 0.00 0.00 0.00 0.00 0.00 0.00 0.00 0.00 0.00 0.00 0.00 0.00 0.00 0.00 0.00 0.00 0.00 0.00 0.00 0.00 0.00 0.00
MSLP
1013.87 1014.51 1014.86 1015.27 1015.57 1015.93 1016.18 1016.43 1016.83 1017.28 1017.52 1017.74 1017.95 1018.04 1018.20 1018.33 1018.49 1018.09 1018.13 1018.49 1019.00 1019.53 1019.86 1020.44 1020.95 1021.44 1021.97 1022.08 1022.16 1022.59 1023.14 1023.71 1024.18 1024.81 1025.30 1025.38 1025.34 1025.51 1025.42 1025.44 1025.47 1025.55 1025.62
1013.78 1014.44 1015.01 1015.26 1015.30 1015.72 1016.07 1016.36 1016.74 1017.16 1017.54 1017.77 1017.94 1018.07 1018.28 1018.24 1018.15 1018.29 1018.31 1018.56 1018.93 1019.08 1019.46 1019.93 1020.40 1020.67 1021.36 1021.73 1021.97 1022.24 1023.02 1023.52 1023.94 1024.63 1025.17 1025.43 1025.51 1025.25 1025.34 1025.50 1025.43 1025.38 1025.50
1013.00 1013.99 1014.73 1015.18 1015.31 1015.60 1016.03 1016.59 1017.10 1017.41 1017.64 1017.95 1018.35 1018.33 1018.45 1018.47 1018.32 1018.20 1018.36 1018.51 1018.73 1019.03 1019.33 1019.71 1020.17 1020.66 1020.94 1021.31 1021.61 1021.93 1022.25 1023.05 1023.58 1023.74 1024.14 1025.22 1025.19 1025.27 1025.27 1025.30 1025.32 1025.37 1025.50
1012.44 1013.15 1013.83 1014.63 1015.07 1015.53 1016.16 1016.44 1016.78 1017.02 1017.30 1017.65 1017.85 1017.98 1017.84 1017.90 1017.98 1018.17 1018.23 1018.24 1018.34 1018.50 1018.60 1018.93 1019.44 1020.07 1020.49 1020.70 1020.99 1021.35 1021.82 1022.36 1023.18 1023.81 1023.82 1023.98 1024.24 1025.10 1025.43 1025.21 1025.12 1025.12 1025.19
1011.10 1011.96 1012.69 1013.50 1014.15 1014.99 1015.59 1015.96 1016.20 1016.45 1016.72 1016.99 1017.02 1017.23 1017.53 1017.57 1017.67 1017.79 1017.82 1017.80 1017.78 1017.88 1018.16 1018.45 1018.84 1019.20 1019.34 1019.93 1020.51 1020.89 1021.29 1021.81 1022.51 1022.94 1023.90 1024.51 1024.69 1024.92 1025.46 1025.27 1025.02 1024.95 1024.94
1010.25 1010.88 1011.71 1012.76 1013.39 1014.17 1014.80 1015.32 1015.64 1015.94 1016.32 1016.62 1016.77 1016.97 1017.16 1017.30 1017.42 1017.31 1017.46 1017.45 1017.42 1017.54 1017.56 1017.57 1018.07 1018.74 1019.26 1019.41 1020.19 1020.53 1021.05 1021.62 1021.90 1022.39 1022.87 1023.55 1024.30 1024.86 1025.04 1025.60 1025.36 1025.48 1025.01
1009.09 1009.95 1010.96 1011.81 1012.39 1012.98 1013.66 1014.34 1014.84 1015.21 1015.78 1016.19 1016.14 1016.13 1016.30 1016.57 1016.64 1016.78 1016.87 1016.83 1016.84 1016.97 1017.00 1017.00 1017.51 1018.09 1018.78 1018.76 1019.10 1020.24 1020.84 1021.17 1021.66 1022.17 1022.83 1023.43 1023.69 1024.16 1024.60 1025.07 1025.38 1025.60 1025.28
1007.76 1008.57 1009.31 1010.00 1010.75 1011.39 1012.31 1013.13 1013.65 1013.97 1014.39 1014.86 1014.84 1014.85 1015.23 1015.54 1015.79 1015.90 1015.98 1016.07 1016.05 1016.10 1016.29 1016.60 1017.11 1017.71 1018.27 1018.60 1019.18 1020.02 1020.45 1020.86 1021.43 1021.99 1022.41 1023.05 1023.46 1023.85 1024.25 1024.57 1025.08 1025.44 1025.33
1006.30 1007.05 1008.09 1008.98 1009.32 1010.05 1010.58 1011.19 1011.60 1012.10 1012.76 1013.36 1013.83 1014.02 1014.49 1014.89 1014.78 1014.88 1015.07 1014.98 1015.15 1015.51 1015.51 1016.10 1016.84 1017.40 1017.82 1018.22 1018.95 1019.67 1020.27 1020.80 1021.39 1021.89 1022.34 1022.72 1023.24 1023.94 1024.33 1024.44 1024.85 1025.33 1025.37
1005.08 1005.86 1006.80 1007.56 1007.93 1008.30 1009.10 1009.95 1010.63 1010.98 1011.14 1011.93 1012.68 1013.28 1013.55 1013.55 1013.90 1014.28 1014.20 1014.66 1015.13 1015.73 1016.16 1015.88 1016.49 1017.38 1017.64 1018.12 1018.87 1019.58 1020.25 1020.88 1021.48 1022.00 1022.41 1023.04 1023.39 1023.52 1024.29 1024.48 1024.55 1024.84 1025.06
1003.89 1004.67 1005.38 1006.07 1006.48 1007.08 1008.31 1009.08 1010.24 1010.55 1011.05 1011.58 1011.44 1011.68 1012.51 1012.96 1013.56 1013.74 1014.00 1014.39 1015.14 1015.41 1016.03 1016.13 1016.31 1017.06 1017.56 1018.16 1018.82 1019.45 1020.20 1020.80 1021.47 1021.94 1022.49 1023.03 1023.29 1023.61 1023.89 1024.06 1024.28 1024.53 1024.70
1002.69 1003.29 1003.95 1004.72 1005.43 1006.04 1006.81 1007.52 1008.28 1008.98 1008.86 1008.52 1008.32 1009.47 1010.85 1011.97 1012.88 1013.35 1013.37 1013.60 1014.06 1014.99 1015.80 1015.78 1016.13 1016.78 1017.61 1018.14 1018.64 1019.41 1019.99 1020.54 1021.20 1021.70 1022.18 1022.71 1023.10 1023.46 1023.77 1023.98 1024.18 1024.28 1024.19
1002.49 1002.88 1003.44 1003.92 1004.34 1005.05 1005.73 1006.24 1006.68 1006.90 1007.25 1008.16 1009.04 1009.37 1009.95 1011.00 1011.85 1012.06 1012.45 1013.18 1013.61 1014.31 1014.94 1015.35 1015.95 1016.53 1017.17 1017.81 1018.48 1018.96 1019.63 1020.28 1020.72 1021.33 1021.85 1022.40 1022.86 1023.26 1023.51 1023.85 1024.11 1024.02 1023.74
1002.11 1002.52 1002.87 1003.11 1003.36 1003.87 1004.55 1005.19 1005.59 1005.97 1006.79 1007.70 1008.21 1009.17 1009.38 1010.12 1010.47 1010.51 1011.88 1012.85 1013.33 1013.88 1014.71 1015.10 1015.53 1016.20 1016.87 1017.53 1018.22 1018.91 1019.61 1020.19 1020.80 1021.21 1021.70 1022.34 1022.57 1022.90 1023.41 1023.71 1023.75 1023.72 1023.73
1002.11 1002.41 1002.52 1003.11 1003.30 1003.55 1003.75 1004.19 1005.00 1005.62 1006.21 1006.97 1007.89 1008.61 1008.94 1009.59 1010.17 1010.72 1011.65 1012.56 1013.15 1013.78 1014.53 1015.14 1015.78 1016.35 1016.89 1017.57 1018.22 1018.94 1019.63 1020.12 1020.82 1021.10 1021.69 1021.96 1022.08 1022.63 1023.11 1023.51 1023.58 1023.67 1023.65
1001.09 1001.59 1001.69 1002.35 1003.11 1003.23 1003.33 1003.78 1004.34 1005.03 1006.05 1006.77 1007.41 1008.17 1008.98 1009.69 1010.59 1011.31 1011.86 1012.68 1013.38 1014.13 1014.63 1015.22 1015.70 1016.41 1017.00 1017.52 1018.15 1018.82 1019.55 1020.07 1020.57 1021.10 1021.62 1021.75 1022.10 1022.59 1023.07 1023.31 1023.49 1023.58 1023.60
1000.58 1000.98 1001.26 1001.68 1002.38 1002.73 1002.77 1003.57 1004.16 1004.68 1005.46 1006.64 1007.45 1008.22 1008.80 1009.56 1010.32 1011.16 1012.01 1012.86 1013.82 1014.44 1015.04 1015.58 1016.13 1016.82 1017.38 1017.90 1018.53 1019.03 1019.60 1020.20 1020.78 1021.33 1021.67 1022.07 1022.61 1022.95 1023.31 1023.47 1023.50 1023.37 1023.22
1000.15 1000.53 1001.10 1001.72 1002.37 1002.99 1003.39 1003.89 1004.47 1005.17 1005.98 1006.84 1007.64 1008.38 1008.95 1009.76 1010.53 1011.29 1012.33 1013.16 1013.92 1014.44 1015.14 1015.78 1016.29 1016.84 1017.46 1018.04 1018.60 1019.17 1019.84 1020.52 1021.13 1021.63 1022.00 1022.39 1022.73 1023.08 1023.18 1023.12 1023.25 1023.27 1023.11
999.53 1000.18 1000.77 1001.77 1002.43 1003.23 1003.90 1004.46 1005.32 1005.95 1006.58 1007.20 1008.04 1008.96 1009.65 1010.39 1011.14 1011.69 1012.40 1013.05 1014.01 1014.79 1015.49 1015.98 1016.40 1016.90 1017.56 1018.07 1018.61 1019.23 1020.05 1020.99 1021.61 1022.04 1022.38 1022.75 1023.01 1023.05 1022.95 1023.16 1023.27 1022.88 1022.65
999.72 1000.60 1001.31 1002.00 1002.75 1003.58 1004.12 1004.78 1005.66 1006.40 1007.13 1007.83 1008.43 1009.20 1009.95 1010.73 1011.16 1011.81 1012.66 1013.52 1014.29 1015.04 1015.73 1016.44 1016.94 1017.48 1018.12 1018.55 1019.02 1019.62 1020.47 1021.43 1021.96 1022.30 1022.60 1022.83 1023.02 1023.06 1022.99 1022.85 1022.92 1022.67 1022.29
1000.10 1000.79 1001.39 1001.90 1002.74 1003.52 1004.23 1005.05 1005.80 1006.52 1007.14 1007.78 1008.52 1009.27 1009.84 1010.48 1011.32 1012.29 1013.08 1013.78 1014.59 1015.39 1016.23 1017.08 1017.95 1018.46 1018.92 1019.50 1019.89 1020.39 1020.98 1021.64 1022.19 1022.57 1022.82 1022.96 1022.85 1022.71 1022.60 1022.45 1022.47 1022.38 1021.99
1000.94 1001.27 1001.98 1002.68 1003.29 1003.68 1004.31 1005.36 1006.13 1006.66 1007.23 1008.01 1008.85 1009.62 1010.31 1010.92 1011.58 1012.36 1013.35 1014.06 1014.83 1015.85 1017.12 1018.11 1019.17 1019.73 1020.05 1020.35 1020.75 1021.08 1021.47 1021.98 1022.36 1022.77 1022.89 1022.92 1022.73 1022.49 1022.33 1022.26 1022.21 1022.09 1021.93
1001.06 1001.61 1002.29 1003.22 1003.90 1004.14 1004.56 1005.53 1006.56 1006.89 1007.51 1008.27 1009.11 1009.90 1010.59 1011.20 1011.96 1012.74 1013.73 1014.75 1015.58 1016.59 1017.74 1018.53 1019.58 1020.47 1020.98 1021.28 1021.50 1021.73 1022.13 1022.45 1022.69 1022.82 1022.85 1022.75 1022.55 1022.46 1022.48 1022.43 1022.32 1022.39 1022.23
1001.27 1001.66 1002.65 1003.68 1004.35 1004.64 1005.15 1005.89 1006.88 1007.54 1008.12 1009.05 1009.99 1010.75 1011.46 1012.35 1013.08 1013.79 1014.35 1015.11 1016.03 1016.98 1017.85 1018.76 1019.73 1020.70 1021.44 1021.90 1022.03 1022.19 1022.44 1022.71 1022.79 1022.80 1022.74 1022.66 1022.59 1022.63 1022.80 1022.72 1022.65 1022.64 1022.40
1001.58 1001.95 1002.76 1003.75 1004.60 1005.19 1005.91 1006.68 1007.22 1008.02 1009.01 1009.93 1010.94 1012.10 1012.96 1013.73 1014.70 1015.75 1016.34 1016.60 1017.26 1017.37 1017.96 1018.97 1019.80 1020.73 1021.57 1021.99 1022.11 1022.19 1022.26 1022.31 1022.41 1022.46 1022.67 1022.91 1023.02 1022.94 1022.78 1022.82 1022.96 1022.77 1022.42
1001.93 1002.75 1003.61 1004.44 1005.28 1005.79 1006.51 1007.22 1007.76 1008.23 1009.26 1010.71 1011.97 1013.03 1013.94 1014.90 1015.81 1016.49 1017.55 1018.14 1018.42 1018.68 1019.08 1019.59 1020.16 1021.18 1021.64 1022.08 1022.11 1022.16 1022.11 1022.08 1021.97 1022.35 1022.80 1023.20 1023.24 1023.13 1023.04 1023.02 1023.04 1022.91 1022.70
Thickness
5623 5617 5612 5607 5602 5596 5597 5598 5597 5591 5587 5587 5590 5593 5594 5595 5594 5600 5599 5600 5600 5597 5598 5599 5599 5596 5593 5593 5595 5593 5591 5587 5583 5579 5575 5574 5574 5570 5569 5567 5565 5562 5558
5623 5619 5613 5610 5610 5604 5602 5598 5593 5590 5590 5588 5589 5593 5597 5596 5601 5599 5600 5599 5599 5602 5602 5601 5599 5599 5595 5593 5593 5593 5587 5584 5580 5575 5570 5570 5567 5566 5563 5560 5557 5555 5552
5630 5622 5616 5611 5612 5609 5603 5598 5594 5592 5592 5591 5591 5596 5596 5595 5599 5601 5603 5600 5601 5601 5601 5600 5597 5595 5594 5592 5590 5588 5588 5582 5579 5576 5572 5559 5560 5554 5554 5551 5549 5547 5542
5633 5628 5622 5616 5614 5610 5605 5602 5599 5597 5597 5597 5598 5597 5601 5600 5601 5600 5602 5604 5605 5605 5604 5603 5600 5596 5592 5593 5590 5588 5585 5582 5575 5568 5567 5564 5559 5550 5548 5544 5541 5539 5535
5642 5637 5632 5626 5622 5616 5610 5608 5606 5604 5603 5603 5604 5602 5599 5601 5601 5603 5603 5604 5605 5604 5605 5603 5601 5599 5596 5592 5589 5586 5584 5580 5572 5568 5558 5551 5545 5543 5537 5534 5533 5531 5525
5646 5645 5641 5633 5628 5622 5616 5612 5611 5609 5606 5605 5605 5604 5603 5602 5602 5602 5602 5602 5604 5604 5604 5603 5599 5594 5589 5589 5584 5581 5578 5573 5569 5564 5558 5549 5540 5536 5531 5522 5521 5516 5514
5656 5649 5642 5637 5635 5630 5624 5618 5614 5611 5607 5604 5604 5605 5604 5602 5603 5604 5604 5606 5606 5604 5606 5606 5599 5592 5587 5590 5589 5579 5572 5569 5564 5558 5551 5543 5538 5531 5524 5518 5512 5505 5501
5665 5659 5654 5648 5643 5640 5633 5626 5621 5619 5616 5612 5613 5614 5612 5611 5610 5609 5608 5607 5608 5608 5607 5604 5597 5593 5589 5587 5581 5574 5568 5564 5559 5552 5546 5539 5532 5525 5518 5511 5502 5494 5489
5674 5667 5661 5655 5652 5647 5642 5638 5637 5635 5629 5623 5619 5618 5614 5612 5613 5614 5613 5613 5613 5609 5606 5601 5595 5590 5587 5584 5577 5569 5563 5557 5550 5543 5537 5532 5524 5514 5506 5500 5492 5482 5477
5680 5675 5668 5664 5662 5659 5653 5646 5641 5638 5638 5633 5626 5619 5616 5618 5616 5613 5615 5611 5604 5596 5592 5598 5592 5583 5582 5577 5570 5562 5555 5548 5541 5534 5528 5519 5512 5505 5493 5488 5481 5473 5467
5685 5682 5678 5673 5671 5667 5656 5650 5641 5638 5633 5627 5630 5629 5620 5616 5611 5610 5608 5605 5597 5587 5585 5588 5587 5581 5577 5570 5563 5556 5547 5540 5533 5526 5518 5509 5501 5492 5485 5477 5469 5461 5454
5689 5689 5685 5680 5676 5671 5665 5658 5651 5646 5649 5650 5650 5640 5627 5617 5609 5596 5598 5604 5601 5592 5584 5586 5582 5576 5569 5562 5556 5547 5541 5533 5525 5518 5510 5500 5490 5482 5474 5466 5457 5450 5443
5682 5680 5679 5677 5677 5672 5666 5662 5660 5658 5654 5644 5635 5635 5629 5621 5612 5608 5606 5599 5597 5593 5587 5582 5577 5571 5564 5556 5548 5542 5534 5526 5519 5509 5499 5489 5480 5472 5463 5453 5444 5439 5435
5682 5679 5674 5674 5675 5673 5669 5662 5658 5657 5650 5641 5637 5628 5627 5620 5616 5617 5604 5597 5591 5588 5579 5576 5572 5565 5557 5549 5541 5532 5523 5515 5504 5496 5486 5475 5468 5459 5447 5439 5431 5425 5418
5674 5674 5677 5670 5670 5667 5667 5665 5658 5653 5647 5640 5632 5625 5624 5616 5612 5607 5598 5588 5585 5579 5572 5566 5560 5553 5546 5539 5531 5522 5512 5504 5492 5485 5474 5463 5455 5445 5436 5427 5418 5410 5403
5677 5677 5680 5674 5668 5668 5668 5665 5658 5651 5643 5636 5632 5625 5617 5609 5599 5591 5586 5579 5573 5566 5562 5556 5551 5543 5537 5529 5521 5512 5501 5492 5482 5471 5460 5454 5443 5433 5423 5413 5404 5396 5388
5675 5674 5676 5676 5669 5665 5666 5659 5654 5647 5641 5631 5624 5618 5613 5605 5596 5586 5578 5571 5563 5557 5550 5544 5537 5529 5521 5513 5504 5496 5488 5477 5467 5456 5448 5438 5427 5418 5407 5398 5390 5382 5372
5673 5671 5668 5665 5661 5657 5654 5649 5644 5637 5627 5618 5610 5603 5598 5590 5585 5578 5569 5560 5554 5548 5539 5530 5524 5517 5509 5501 5493 5484 5472 5460 5450 5439 5430 5420 5411 5402 5395 5388 5378 5368 5357
5672 5669 5665 5657 5654 5649 5644 5638 5629 5622 5615 5608 5600 5590 5584 5579 5572 5568 5561 5552 5543 5534 5525 5519 5513 5507 5498 5490 5481 5470 5457 5443 5432 5422 5413 5403 5394 5387 5381 5373 5363 5357 5348
5665 5658 5653 5648 5643 5635 5632 5626 5618 5611 5602 5595 5588 5581 5573 5566 5561 5554 5546 5537 5530 5522 5514 5506 5499 5491 5482 5473 5464 5452 5439 5425 5414 5405 5396 5387 5378 5369 5362 5356 5347 5343 5336
5653 5648 5647 5644 5636 5630 5624 5616 5608 5601 5595 5588 5580 5572 5566 5558 5549 5540 5532 5525 5517 5508 5498 5488 5478 5470 5462 5451 5441 5431 5419 5407 5396 5386 5377 5369 5361 5353 5346 5338 5331 5324 5319
5635 5636 5631 5625 5620 5619 5614 5603 5596 5591 5585 5575 5566 5559 5552 5545 5538 5529 5519 5512 5502 5490 5476 5466 5454 5444 5437 5429 5420 5411 5400 5389 5379 5368 5359 5350 5342 5335 5328 5320 5312 5304 5296
5628 5625 5620 5610 5605 5604 5601 5591 5580 5578 5571 5564 5556 5548 5541 5532 5523 5515 5504 5493 5483 5472 5459 5449 5435 5423 5414 5405 5397 5389 5379 5369 5360 5351 5341 5333 5325 5317 5307 5299 5290 5279 5270
5617 5613 5608 5598 5590 5588 5584 5576 5567 5561 5555 5546 5536 5528 5520 5509 5501 5493 5486 5476 5464 5454 5443 5432 5419 5405 5393 5383 5375 5367 5358 5349 5341 5333 5324 5317 5308 5298 5288 5278 5267 5256 5248
5604 5604 5597 5588 5578 5573 5565 5558 5553 5545 5535 5525 5514 5501 5492 5484 5472 5460 5452 5447 5438 5434 5426 5414 5402 5387 5374 5365 5357 5349 5342 5334 5325 5316 5306 5295 5286 5277 5269 5258 5246 5237 5227
5590 5584 5577 5570 5562 5557 5549 5540 5534 5528 5517 5503 5490 5478 5469 5459 5448 5439 5427 5419 5412 5406 5399 5390 5380 5365 5355 5345 5338 5330 5323 5317 5309 5297 5285 5272 5263 5256 5248 5238 5227 5216 5205